Date String (YYYY-MM-DD hh:mm:ss) UTC,Instrument flags,Ambient pressure (hPa),Sample flow (lpm),Bypass flow (lpm),Sample temperature (°C),Ambient temperature (°C),ASC tube jacket temperature (°C),LED temperature (°C),Box temperature (°C),Sample RH (%),Span deviation,Mass concentration (μg/m³),Mass concentration (μg/m³),Mass concentration (μg/m³)
DateTimeUTC,F1_M11,P_M11,Q1_M11,Q2_M11,T1_M11,T2_M11,T3_M11,T4_M11,T5_M11,U1_M11,ZSPAN_M11,X2_M11,X0_M11,X1_M11
2022-12-06 09:00:00,,0819.4,5.00,0.00,21.8,20.2,00.0,30.9,23.5,19.1,0000.0,0002.06,0004.36,0001.36
2022-12-06 09:01:00,,0819.4,5.01,0.00,21.8,20.2,00.0,30.8,23.5,19.3,0000.0,0002.12,0004.70,0001.38
2022-12-06 09:02:00,,0819.3,5.01,0.00,21.8,20.2,00.0,30.8,23.4,19.4,0000.0,0002.17,0005.24,0001.41
2022-12-06 09:03:00,,0819.2,5.00,0.00,21.8,20.2,00.0,30.8,23.4,19.5,0000.0,0002.18,0005.39,0001.42
2022-12-06 09:04:00,,0819.2,5.01,0.00,21.8,20.2,00.0,30.8,23.4,19.5,0000.0,0002.20,0007.03,0001.44
2022-12-06 09:05:00,,0819.1,5.01,0.00,21.8,20.2,00.0,30.8,23.5,19.5,0000.0,0002.19,0007.29,0001.44
2022-12-06 09:06:00,,0819.0,5.00,0.00,21.8,20.3,00.0,30.8,23.6,19.5,0000.0,0002.16,0007.71,0001.44
2022-12-06 09:07:00,,0819.0,5.00,0.00,21.8,20.3,00.0,30.8,23.6,19.5,0000.0,0002.15,0007.93,0001.42
2022-12-06 09:08:00,,0819.1,5.00,0.00,21.8,20.3,00.0,30.8,23.5,19.5,0000.0,0002.13,0007.87,0001.43
2022-12-06 09:09:00,,0819.1,5.00,0.00,21.8,20.3,00.0,30.8,23.4,19.6,0000.0,0002.07,0007.58,0001.44
2022-12-06 09:10:00,,0819.2,5.00,0.00,21.8,20.3,00.0,30.8,23.4,19.6,0000.0,0002.02,0007.45,0001.44
2022-12-06 09:11:00,,0819.2,5.00,0.00,21.8,20.5,00.0,30.8,23.5,19.6,0000.0,0001.97,0007.42,0001.44
2022-12-06 09:12:00,,0819.2,5.01,0.00,21.9,21.4,00.0,30.7,23.8,19.6,0000.0,0001.93,0007.59,0001.43
2022-12-06 09:13:00,,0819.1,5.00,0.00,22.0,22.1,00.0,30.7,24.0,19.5,0000.0,0001.94,0007.31,0001.43
2022-12-06 09:14:00,,0819.1,4.99,0.00,22.0,21.9,00.0,30.8,24.1,19.4,0000.0,0001.98,0007.23,0001.45
2022-12-06 09:15:00,,0819.2,5.00,0.00,22.0,21.6,00.0,30.8,24.0,19.4,0000.0,0002.12,0005.97,0001.47
2022-12-06 09:16:00,,0819.2,5.01,0.00,22.1,21.4,00.0,30.9,24.0,19.3,0000.0,0002.16,0005.66,0001.49
2022-12-06 09:17:00,,0819.3,5.01,0.00,22.1,21.3,00.0,30.9,24.0,19.3,0000.0,0002.17,0005.09,0001.51
2022-12-06 09:18:00,,0819.3,5.01,0.00,22.1,21.1,00.0,30.9,24.0,19.2,0000.0,0002.22,0004.64,0001.54
2022-12-06 09:19:00,,0819.4,4.99,0.00,22.1,21.1,00.0,30.9,24.0,19.2,0000.0,0002.28,0004.77,0001.56
2022-12-06 09:20:00,,0819.5,4.99,0.00,22.1,21.0,00.0,30.9,23.9,19.2,0000.0,0002.33,0004.90,0001.58
2022-12-06 09:21:00,,0819.5,4.99,0.00,22.1,20.9,00.0,30.9,24.0,19.2,0000.0,0002.42,0005.04,0001.61
2022-12-06 09:22:00,,0819.6,5.00,0.00,22.1,20.9,00.0,31.0,23.9,19.2,0000.0,0002.50,0005.19,0001.63
2022-12-06 09:23:00,,0819.6,5.01,0.00,22.1,20.8,00.0,31.0,23.9,19.1,0000.0,0002.57,0004.62,0001.66
2022-12-06 09:24:00,,0819.7,5.01,0.00,22.1,20.8,00.0,31.0,23.9,19.0,0000.0,0002.57,0004.42,0001.68
2022-12-06 09:25:00,,0819.7,5.00,0.00,22.0,20.8,00.0,31.0,23.9,19.0,0000.0,0002.58,0004.52,0001.70
2022-12-06 09:26:00,,0819.7,5.00,0.00,22.0,20.7,00.0,31.0,23.9,19.0,0000.0,0002.53,0004.95,0001.72
2022-12-06 09:27:00,,0819.7,4.99,0.00,22.0,20.7,00.0,31.0,23.9,18.9,0000.0,0002.52,0005.41,0001.74
2022-12-06 09:28:00,,0819.7,5.00,0.00,22.0,20.7,00.0,31.0,23.9,18.9,0000.0,0002.57,0005.55,0001.74
2022-12-06 09:29:00,,0819.6,5.01,0.00,22.0,20.7,00.0,31.0,23.9,18.9,0000.0,0002.57,0005.71,0001.75
2022-12-06 09:30:00,,0819.6,5.01,0.00,22.0,20.7,00.0,31.0,23.9,18.8,0000.0,0002.56,0006.08,0001.75
2022-12-06 09:31:00,,0819.5,5.01,0.00,22.0,20.7,00.0,31.0,23.9,18.7,0000.0,0002.60,0006.25,0001.75
2022-12-06 09:32:00,,0819.5,5.00,0.00,22.0,20.7,00.0,31.0,23.9,18.7,0000.0,0002.57,0006.34,0001.75
2022-12-06 09:33:00,,0819.4,5.00,0.00,22.0,20.7,00.0,31.0,23.9,18.8,0000.0,0002.55,0007.38,0001.75
2022-12-06 09:34:00,,0819.4,5.00,0.00,22.0,20.6,00.0,31.0,23.9,18.8,0000.0,0002.53,0007.33,0001.75
2022-12-06 09:35:00,,0819.4,5.00,0.00,22.0,20.6,00.0,31.0,23.8,18.7,0000.0,0002.51,0007.24,0001.75
2022-12-06 09:36:00,,0819.4,5.00,0.00,22.0,20.6,00.0,31.0,23.9,18.6,0000.0,0002.49,0007.19,0001.77
2022-12-06 09:37:00,,0819.4,5.00,0.00,22.0,20.7,00.0,31.0,23.9,18.6,0000.0,0002.49,0006.62,0001.75
2022-12-06 09:38:00,,0819.4,5.00,0.00,22.0,20.7,00.0,31.0,23.9,18.6,0000.0,0002.48,0006.07,0001.75
2022-12-06 09:39:00,,0819.4,5.00,0.00,22.0,20.7,00.0,31.0,23.9,18.5,0000.0,0002.47,0006.16,0001.74
2022-12-06 09:40:00,,0819.4,5.00,0.00,22.0,20.6,00.0,31.0,23.8,18.3,0000.0,0002.46,0006.04,0001.74
2022-12-06 09:41:00,,0819.4,5.00,0.00,22.0,20.6,00.0,30.9,23.9,18.1,0000.0,0002.47,0005.65,0001.74
2022-12-06 09:42:00,,0819.3,5.01,0.00,22.0,20.7,00.0,30.9,23.9,18.1,0000.0,0002.47,0005.87,0001.73
2022-12-06 09:43:00,,0819.2,5.00,0.00,22.0,20.7,00.0,30.9,23.9,18.1,0000.0,0002.49,0005.92,0001.73
2022-12-06 09:44:00,,0819.2,5.00,0.00,22.0,20.6,00.0,30.9,23.8,18.3,0000.0,0002.50,0004.79,0001.72
2022-12-06 09:45:00,,0819.3,4.99,0.00,22.0,20.6,00.0,30.9,23.8,18.3,0000.0,0002.51,0004.86,0001.72
2022-12-06 09:46:00,,0819.3,4.99,0.00,22.0,20.7,00.0,30.9,23.7,18.2,0000.0,0002.53,0005.02,0001.71
2022-12-06 09:47:00,,0819.3,5.00,0.00,22.0,20.7,00.0,30.9,23.8,18.1,0000.0,0002.53,0004.98,0001.68
2022-12-06 09:48:00,,0819.3,5.00,0.00,22.0,20.7,00.0,30.9,23.8,17.9,0000.0,0002.51,0004.90,0001.68
2022-12-06 09:49:00,,0819.3,5.01,0.00,22.0,20.7,00.0,30.9,23.8,17.9,0000.0,0002.47,0004.81,0001.67
2022-12-06 09:50:00,,0819.2,5.01,0.00,22.0,20.7,00.0,30.9,23.7,18.0,0000.0,0002.41,0004.56,0001.65
2022-12-06 09:51:00,,0819.3,5.00,0.00,22.0,20.6,00.0,30.9,23.7,18.1,0000.0,0002.42,0004.86,0001.64
2022-12-06 09:52:00,,0819.3,5.00,0.00,22.0,20.6,00.0,30.9,23.8,18.2,0000.0,0002.44,0005.36,0001.64
2022-12-06 09:53:00,,0819.3,4.99,0.00,22.0,20.6,00.0,30.9,23.8,18.2,0000.0,0002.43,0005.12,0001.65
2022-12-06 09:54:00,,0819.3,4.99,0.00,22.0,20.6,00.0,30.9,23.8,18.1,0000.0,0002.40,0004.86,0001.66
2022-12-06 09:55:00,,0819.3,5.00,0.00,22.0,20.6,00.0,30.9,23.8,18.0,0000.0,0002.43,0004.91,0001.66
2022-12-06 09:56:00,,0819.3,5.00,0.00,22.0,20.6,00.0,30.9,23.8,18.0,0000.0,0002.48,0005.59,0001.65
2022-12-06 09:57:00,,0819.2,5.01,0.00,22.0,20.6,00.0,30.9,23.8,18.1,0000.0,0002.43,0005.53,0001.65
2022-12-06 09:58:00,,0819.3,5.00,0.00,22.0,20.6,00.0,30.9,23.8,18.1,0000.0,0002.43,0005.78,0001.65
2022-12-06 09:59:00,,0819.2,5.00,0.00,22.0,20.6,00.0,30.9,23.8,18.0,0000.0,0002.37,0005.71,0001.64
